This is the latest recevied weather packets stored in our database for station/object NO9B. If no packets are shown the sender has not sent any weather packets the latest 10 day(s).
| Time | Temp. | Humidity | Pressure | Rain* | Wind** | Luminosity | Snow |
|---|---|---|---|---|---|---|---|
| 1787443107 | 24.44° C | 62% | 1015.7 hPa | 0 mm | - | 7 W/m² | - |
| 1787442802 | 24.44° C | 61% | 1015.4 hPa | 0 mm | - | 7 W/m² | - |
| 1787442499 | 24.44° C | 59% | 1015.4 hPa | 0 mm | - | 8 W/m² | - |
| 1787442194 | 25° C | 58% | 1015.5 hPa | 0 mm | - | 11 W/m² | - |
| 1787441890 | 25° C | 58% | 1015.5 hPa | 0 mm | - | 13 W/m² | - |
| 1787441590 | 25° C | 56% | 1015.5 hPa | 0 mm | - | 14 W/m² | - |
| 1787441285 | 25° C | 58% | 1015.4 hPa | 0 mm | - | 24 W/m² | - |
| 1787440981 | 25.56° C | 58% | 1015.4 hPa | 0 mm | - | 35 W/m² | - |
| 1787440676 | 25.56° C | 58% | 1015.5 hPa | 0 mm | - | 38 W/m² | - |
| 1787440371 | 25.56° C | 57% | 1015.4 hPa | 0 mm | - | 41 W/m² | - |
| 1787440068 | 25.56° C | 59% | 1015.5 hPa | 0 mm | - | 21 W/m² | - |
| 1787439763 | 25.56° C | 56% | 1015.4 hPa | 0 mm | - | 21 W/m² | - |
| 1787439459 | 25.56° C | 57% | 1015.4 hPa | 0 mm | - | 22 W/m² | - |
| 1787439156 | 25.56° C | 54% | 1015.4 hPa | 0 mm | - | 35 W/m² | - |
| 1787438851 | 26.11° C | 56% | 1015.5 hPa | 0 mm | - | 45 W/m² | - |
| 1787438550 | 26.11° C | 53% | 1015.4 hPa | 0 mm | - | 51 W/m² | - |
| 1787438245 | 26.11° C | 54% | 1015.4 hPa | 0 mm | - | 28 W/m² | - |
| 1787437940 | 26.11° C | 55% | 1015.2 hPa | 0 mm | - | 35 W/m² | - |
| 1787437636 | 26.11° C | 54% | 1015.2 hPa | 0 mm | - | 34 W/m² | - |
| 1787437332 | 26.11° C | 54% | 1015.3 hPa | 0 mm | - | 182 W/m² | - |
| 1787437029 | 25.56° C | 55% | 1015.3 hPa | 0 mm | - | 194 W/m² | - |
| 1787436724 | 25° C | 58% | 1015.2 hPa | 0 mm | - | 44 W/m² | - |
| 1787436421 | 25° C | 59% | 1015.2 hPa | 0 mm | - | 29 W/m² | - |
| 1787436120 | 25° C | 56% | 1015.2 hPa | 0 mm | - | 40 W/m² | - |
| 1787435819 | 25.56° C | 54% | 1015 hPa | 0 mm | - | 26 W/m² | - |
* Rain latest hour (hover to see other rain measurements)
** Current wind speed in m/s (hover to see current wind gust speed)